DW6352 Weather Reports


Display with metric or nautical units.
time (UTC)temp
F
wind
direction
speed
MPH
gust
MPH
rain 1hr
in
rain 24hr
in
rain mn
in
humidity
%
barometer
mb
20260504044542 55 167 6.0 12.0 0.00 0.00 0.00 44 999.0
20260504043044 55 189 5.0 12.0 0.00 0.00 0.00 44 999.4
20260504041537 53 169 5.0 9.0 0.00 0.00 0.00 46 999.7
20260504040039 52 175 5.0 10.0 0.00 0.00 0.00 47 1000.1
20260504034536 51 173 4.0 6.0 0.00 0.00 0.00 49 1000.4
20260504033037 51 172 4.0 6.0 0.00 0.00 0.00 48 1000.8
20260504031528 52 184 3.0 5.0 0.00 0.00 0.00 48 1001.1
20260504030027 52 188 2.0 5.0 0.00 0.00 0.00 47 1001.5
20260504024525 54 236 2.0 4.0 0.00 0.00 0.00 44 1001.7
20260504023024 55 236 2.0 3.0 0.00 0.00 0.00 41 1001.7
20260504021522 57 236 2.0 3.0 0.00 0.00 0.00 38 1001.8
20260504020021 59 236 1.0 3.0 0.00 0.00 0.00 34 1002.0
20260504014522 61 241 1.0 4.0 0.00 0.00 0.00 31 1002.0
20260504013031 63 208 1.0 5.0 0.00 0.00 0.00 28 1002.0
20260504011520 64 240 2.0 5.0 0.00 0.00 0.00 27 1001.9
20260504010019 65 260 3.0 9.0 0.00 0.00 0.00 26 1002.1
20260504004518 66 264 5.0 13.0 0.00 0.00 0.00 26 1002.1
20260504003017 67 257 5.0 13.0 0.00 0.00 0.00 25 1002.2
20260504001516 68 255 6.0 16.0 0.00 0.00 0.00 24 1002.2
20260504000040 68 283 6.0 12.0 0.00 0.00 0.00 24 1002.3
20260503234513 67 267 3.0 12.0 0.00 0.00 0.00 25 1002.5
20260503233013 67 272 7.0 13.0 0.00 0.00 0.00 24 1002.7
20260503231511 67 227 7.0 18.0 0.00 0.00 0.00 23 1002.6
20260503230015 68 279 8.0 15.0 0.00 0.00 0.00 23 1002.7
20260503224510 69 242 4.0 14.0 0.00 0.00 0.00 24 1002.8
20260503223008 68 254 7.0 13.0 0.00 0.00 0.00 22 1002.8
20260503221507 68 250 8.0 18.0 0.00 0.00 0.00 24 1003.1
20260503220006 68 281 6.0 14.0 0.00 0.00 0.00 24 1003.2
20260503214503 68 261 8.0 16.0 0.00 0.00 0.00 24 1003.3
20260503213002 67 261 6.0 15.0 0.00 0.00 0.00 26 1003.5
20260503211620 67 312 6.0 14.0 0.00 0.00 0.00 24 1003.7
20260503210101 68 273 7.0 13.0 0.00 0.00 0.00 25 1003.9
20260503204559 68 306 10.0 16.0 0.00 0.00 0.00 23 1004.0
20260503203113 67 279 10.0 21.0 0.00 0.00 0.00 23 1004.1
20260503201557 67 300 10.0 19.0 0.00 0.00 0.00 23 1004.3
20260503200056 67 333 5.0 14.0 0.00 0.00 0.00 23 1004.3
20260503194557 66 342 7.0 13.0 0.00 0.00 0.00 23 1004.4
20260503193053 66 307 7.0 14.0 0.00 0.00 0.00 23 1004.7
20260503191551 66 10 8.0 21.0 0.00 0.00 0.00 23 1004.8
20260503190051 65 308 9.0 20.0 0.00 0.00 0.00 22 1005.1
20260503184551 65 25 10.0 21.0 0.00 0.00 0.00 20 1005.2
20260503183049 65 360 14.0 24.0 0.00 0.00 0.00 20 1005.3
20260503181559 66 349 11.0 22.0 0.00 0.00 0.00 25 1005.3
20260503180047 65 317 10.0 18.0 0.00 0.00 0.00 30 1005.3
20260503174544 64 316 9.0 17.0 0.00 0.00 0.00 30 1005.6
20260503173053 64 310 10.0 22.0 0.00 0.00 0.00 27 1005.6
20260503171540 64 329 11.0 20.0 0.00 0.00 0.00 27 1005.6
20260503081540 50 167 2.0 6.0 0.00 0.00 0.00 60 1004.3
20260503071531 52 55 4.0 7.0 0.00 0.00 0.00 55 1004.8
20260503054517 54 157 7.0 14.0 0.00 0.00 0.00 50 1005.6
20260503053013 54 175 7.0 15.0 0.00 0.00 0.00 51 1005.9